Back to Top

Language: 

My Weather Underground Personal Weather Station Historical Data with Graphs...

Delerius Weather Station Historical Data
Daily Summary for June 17, 2017 Units:  English    Metric   Both
« Previous Day
Next Day »
Daily Weekly Monthly Yearly Custom
  High: Low: Average:
Temperature: 84.4 °F 62.1 °F 73.1 °F
Dew Point: 65.0 °F 55.8 °F 61.4 °F
Humidity: 89 % 46 % 68 %
Wind Speed: 10.0 mph 0.0 mph 6 mph
Wind Gust: 19.0 mph - -
Wind:- - WNW
Pressure: 30.28 in 30.23 in -
Precipitation: 0.00 in    
Historical Graphs
 
 
Tabular Data for June 17, 2017
Time Temperature Dew Point Pressure Wind Wind Speed Wind Gust Humidity Rainfall Rate (Hourly) solar Conditions
00:03 63.1 °F 58.9 °F 30.26 in WNW 5.0 mph 8.0 mph 86 % 0.00 in 0 W/m2
00:08 63.1 °F 58.9 °F 30.26 in WNW 5.0 mph 8.0 mph 86 % 0.00 in 0 W/m2
00:13 63.0 °F 58.7 °F 30.26 in WNW 5.0 mph 8.0 mph 86 % 0.00 in 0 W/m2
00:18 63.0 °F 58.7 °F 30.26 in WNW 5.0 mph 8.0 mph 86 % 0.00 in 0 W/m2
00:23 62.8 °F 58.9 °F 30.26 in WNW 5.0 mph 8.0 mph 87 % 0.00 in 0 W/m2
00:28 62.8 °F 58.9 °F 30.26 in WNW 5.0 mph 8.0 mph 87 % 0.00 in 0 W/m2
00:33 62.8 °F 58.9 °F 30.26 in NW 5.0 mph 8.0 mph 87 % 0.00 in 0 W/m2
00:38 62.8 °F 58.9 °F 30.26 in WNW 4.0 mph 7.0 mph 87 % 0.00 in 0 W/m2
00:43 62.8 °F 58.9 °F 30.26 in WNW 4.0 mph 7.0 mph 87 % 0.00 in 0 W/m2
00:48 63.0 °F 59.0 °F 30.26 in WNW 4.0 mph 7.0 mph 87 % 0.00 in 0 W/m2
00:53 63.0 °F 59.3 °F 30.26 in WNW 4.0 mph 8.0 mph 88 % 0.00 in 0 W/m2
00:58 63.1 °F 59.5 °F 30.26 in WNW 5.0 mph 10.0 mph 88 % 0.00 in 0 W/m2
01:03 63.1 °F 59.2 °F 30.26 in WNW 6.0 mph 10.0 mph 87 % 0.00 in 0 W/m2
01:08 63.3 °F 59.4 °F 30.26 in WNW 5.0 mph 9.0 mph 87 % 0.00 in 0 W/m2
01:13 63.3 °F 59.4 °F 30.26 in WNW 6.0 mph 9.0 mph 87 % 0.00 in 0 W/m2
01:18 63.3 °F 59.4 °F 30.26 in WNW 7.0 mph 11.0 mph 87 % 0.00 in 0 W/m2
01:23 63.5 °F 59.6 °F 30.26 in WNW 7.0 mph 11.0 mph 87 % 0.00 in 0 W/m2
01:28 63.7 °F 59.7 °F 30.26 in WNW 7.0 mph 10.0 mph 87 % 0.00 in 0 W/m2
01:33 63.7 °F 59.7 °F 30.26 in WNW 6.0 mph 10.0 mph 87 % 0.00 in 0 W/m2
01:38 63.7 °F 59.7 °F 30.26 in WNW 6.0 mph 10.0 mph 87 % 0.00 in 0 W/m2
01:43 63.9 °F 59.6 °F 30.26 in WNW 6.0 mph 9.0 mph 86 % 0.00 in 0 W/m2
01:49 63.9 °F 59.6 °F 30.26 in WNW 6.0 mph 9.0 mph 86 % 0.00 in 0 W/m2
01:59 64.0 °F 59.8 °F 30.26 in WNW 6.0 mph 11.0 mph 86 % 0.00 in 0 W/m2
02:04 64.0 °F 59.8 °F 30.26 in WNW 7.0 mph 11.0 mph 86 % 0.00 in 0 W/m2
02:09 64.0 °F 59.8 °F 30.26 in WNW 7.0 mph 12.0 mph 86 % 0.00 in 0 W/m2
02:14 64.0 °F 59.8 °F 30.26 in West 7.0 mph 12.0 mph 86 % 0.00 in 0 W/m2
02:19 64.0 °F 59.4 °F 30.26 in West 7.0 mph 11.0 mph 85 % 0.00 in 0 W/m2
02:24 64.0 °F 59.4 °F 30.26 in West 8.0 mph 13.0 mph 85 % 0.00 in 0 W/m2
02:29 64.0 °F 59.4 °F 30.25 in West 8.0 mph 13.0 mph 85 % 0.00 in 0 W/m2
02:34 64.0 °F 59.4 °F 30.26 in West 8.0 mph 12.0 mph 85 % 0.00 in 0 W/m2
02:39 64.0 °F 59.4 °F 30.26 in West 7.0 mph 12.0 mph 85 % 0.00 in 0 W/m2
02:44 64.0 °F 59.4 °F 30.26 in West 6.0 mph 11.0 mph 85 % 0.00 in 0 W/m2
02:45 64.0 °F 59.4 °F 30.26 in West 6.0 mph 11.0 mph 85 % 0.00 in 0 W/m2
02:50 64.0 °F 59.4 °F 30.26 in West 6.0 mph 11.0 mph 85 % 0.00 in 0 W/m2
02:55 64.0 °F 59.4 °F 30.26 in West 6.0 mph 11.0 mph 85 % 0.00 in 0 W/m2
03:00 64.0 °F 59.4 °F 30.26 in West 6.0 mph 10.0 mph 85 % 0.00 in 0 W/m2
03:05 64.0 °F 59.8 °F 30.26 in West 6.0 mph 9.0 mph 86 % 0.00 in 0 W/m2
03:10 64.0 °F 59.8 °F 30.26 in WNW 5.0 mph 9.0 mph 86 % 0.00 in 0 W/m2
03:15 64.0 °F 59.8 °F 30.26 in West 4.0 mph 9.0 mph 86 % 0.00 in 0 W/m2
03:20 64.0 °F 59.8 °F 30.26 in West 4.0 mph 9.0 mph 86 % 0.00 in 0 W/m2
03:25 64.0 °F 59.8 °F 30.26 in West 4.0 mph 7.0 mph 86 % 0.00 in 0 W/m2
03:30 63.9 °F 59.3 °F 30.26 in WNW 4.0 mph 7.0 mph 85 % 0.00 in 0 W/m2
03:35 63.9 °F 59.3 °F 30.26 in WNW 4.0 mph 7.0 mph 85 % 0.00 in 0 W/m2
03:40 63.7 °F 59.4 °F 30.26 in West 5.0 mph 7.0 mph 86 % 0.00 in 0 W/m2
03:45 63.5 °F 59.2 °F 30.26 in West 5.0 mph 7.0 mph 86 % 0.00 in 0 W/m2
03:50 63.3 °F 59.1 °F 30.26 in WNW 5.0 mph 8.0 mph 86 % 0.00 in 0 W/m2
03:55 63.0 °F 58.7 °F 30.26 in WNW 5.0 mph 9.0 mph 86 % 0.00 in 0 W/m2
04:00 63.0 °F 59.0 °F 30.26 in WNW 5.0 mph 9.0 mph 87 % 0.00 in 0 W/m2
04:05 62.8 °F 58.9 °F 30.26 in WNW 4.0 mph 9.0 mph 87 % 0.00 in 0 W/m2
04:10 62.6 °F 58.7 °F 30.26 in WNW 3.0 mph 6.0 mph 87 % 0.00 in 0 W/m2
04:15 62.4 °F 58.8 °F 30.26 in WNW 3.0 mph 6.0 mph 88 % 0.00 in 0 W/m2
04:20 62.2 °F 58.6 °F 30.26 in WNW 2.0 mph 5.0 mph 88 % 0.00 in 0 W/m2
04:25 62.2 °F 58.6 °F 30.26 in WNW 1.0 mph 4.0 mph 88 % 0.00 in 0 W/m2
04:30 62.2 °F 58.6 °F 30.26 in WNW 1.0 mph 3.0 mph 88 % 0.00 in 0 W/m2
04:35 62.2 °F 59.0 °F 30.26 in WNW 1.0 mph 2.0 mph 89 % 0.00 in 0 W/m2
04:40 62.1 °F 58.8 °F 30.26 in WNW 1.0 mph 2.0 mph 89 % 0.00 in 5 W/m2
04:45 62.1 °F 58.8 °F 30.26 in WNW 1.0 mph 3.0 mph 89 % 0.00 in 7 W/m2
04:50 62.2 °F 59.0 °F 30.26 in WNW 2.0 mph 6.0 mph 89 % 0.00 in 11 W/m2
04:55 62.2 °F 59.0 °F 30.26 in WNW 4.0 mph 7.0 mph 89 % 0.00 in 14 W/m2
05:00 62.4 °F 59.1 °F 30.26 in WNW 6.0 mph 9.0 mph 89 % 0.00 in 25 W/m2
05:05 62.6 °F 59.3 °F 30.26 in WNW 7.0 mph 10.0 mph 89 % 0.00 in 21 W/m2
05:10 62.8 °F 59.5 °F 30.26 in WNW 6.0 mph 10.0 mph 89 % 0.00 in 19 W/m2
05:15 63.0 °F 59.3 °F 30.26 in West 6.0 mph 11.0 mph 88 % 0.00 in 28 W/m2
05:20 63.1 °F 59.5 °F 30.26 in West 7.0 mph 12.0 mph 88 % 0.00 in 21 W/m2
05:25 63.3 °F 59.7 °F 30.26 in West 8.0 mph 12.0 mph 88 % 0.00 in 23 W/m2
05:30 63.7 °F 59.7 °F 30.26 in West 8.0 mph 13.0 mph 87 % 0.00 in 23 W/m2
05:35 63.7 °F 59.7 °F 30.26 in West 7.0 mph 13.0 mph 87 % 0.00 in 30 W/m2
05:40 63.9 °F 59.9 °F 30.26 in West 5.0 mph 11.0 mph 87 % 0.00 in 46 W/m2
05:45 63.9 °F 59.9 °F 30.26 in West 5.0 mph 8.0 mph 87 % 0.00 in 44 W/m2
05:50 64.0 °F 59.8 °F 30.26 in WSW 6.0 mph 10.0 mph 86 % 0.00 in 56 W/m2
05:55 64.0 °F 59.8 °F 30.26 in West 7.0 mph 11.0 mph 86 % 0.00 in 70 W/m2
06:00 64.2 °F 59.9 °F 30.26 in West 7.0 mph 11.0 mph 86 % 0.00 in 90 W/m2
06:01 64.2 °F 59.9 °F 30.26 in West 7.0 mph 11.0 mph 86 % 0.00 in 90 W/m2
06:06 64.2 °F 59.9 °F 30.26 in West 6.0 mph 9.0 mph 86 % 0.00 in 98 W/m2
06:11 64.4 °F 60.1 °F 30.26 in West 5.0 mph 9.0 mph 86 % 0.00 in 72 W/m2
06:16 64.6 °F 60.0 °F 30.26 in West 4.0 mph 9.0 mph 85 % 0.00 in 54 W/m2
06:21 64.6 °F 60.0 °F 30.26 in West 4.0 mph 7.0 mph 85 % 0.00 in 62 W/m2
06:26 64.8 °F 60.1 °F 30.26 in WNW 3.0 mph 7.0 mph 85 % 0.00 in 98 W/m2
06:31 64.9 °F 60.3 °F 30.26 in WNW 3.0 mph 12.0 mph 85 % 0.00 in 100 W/m2
06:36 65.1 °F 60.2 °F 30.27 in West 6.0 mph 12.0 mph 84 % 0.00 in 81 W/m2
06:41 65.1 °F 60.2 °F 30.26 in West 6.0 mph 11.0 mph 84 % 0.00 in 62 W/m2
06:46 65.5 °F 60.5 °F 30.27 in West 6.0 mph 10.0 mph 84 % 0.00 in 69 W/m2
06:51 65.5 °F 60.5 °F 30.26 in West 6.0 mph 10.0 mph 84 % 0.00 in 62 W/m2
06:56 65.7 °F 60.4 °F 30.26 in West 6.0 mph 12.0 mph 83 % 0.00 in 63 W/m2
07:01 65.7 °F 60.4 °F 30.26 in West 6.0 mph 12.0 mph 83 % 0.00 in 63 W/m2
07:06 65.8 °F 60.5 °F 30.26 in West 5.0 mph 9.0 mph 83 % 0.00 in 65 W/m2
07:16 66.6 °F 60.9 °F 30.26 in West 5.0 mph 11.0 mph 82 % 0.00 in 264 W/m2
07:21 66.7 °F 61.1 °F 30.26 in West 6.0 mph 11.0 mph 82 % 0.00 in 278 W/m2
07:26 67.3 °F 61.6 °F 30.26 in West 4.0 mph 9.0 mph 82 % 0.00 in 279 W/m2
07:32 67.8 °F 61.4 °F 30.26 in West 4.0 mph 9.0 mph 80 % 0.00 in 306 W/m2
07:36 68.4 °F 61.6 °F 30.27 in West 5.0 mph 9.0 mph 79 % 0.00 in 316 W/m2
07:41 68.7 °F 61.9 °F 30.27 in West 5.0 mph 10.0 mph 79 % 0.00 in 330 W/m2
07:47 69.1 °F 61.9 °F 30.27 in West 6.0 mph 12.0 mph 78 % 0.00 in 348 W/m2
07:52 69.3 °F 61.7 °F 30.27 in West 8.0 mph 12.0 mph 77 % 0.00 in 366 W/m2
07:57 69.6 °F 61.7 °F 30.27 in West 7.0 mph 12.0 mph 76 % 0.00 in 381 W/m2
08:02 70.0 °F 61.7 °F 30.27 in West 7.0 mph 11.0 mph 75 % 0.00 in 390 W/m2
08:07 70.2 °F 61.9 °F 30.27 in West 6.0 mph 11.0 mph 75 % 0.00 in 102 W/m2
08:12 69.8 °F 61.5 °F 30.27 in West 7.0 mph 11.0 mph 75 % 0.00 in 128 W/m2
08:17 69.6 °F 61.3 °F 30.27 in West 7.0 mph 13.0 mph 75 % 0.00 in 192 W/m2
08:22 69.6 °F 61.7 °F 30.27 in West 7.0 mph 13.0 mph 76 % 0.00 in 206 W/m2
08:27 69.6 °F 61.3 °F 30.27 in West 7.0 mph 12.0 mph 75 % 0.00 in 200 W/m2
08:32 69.6 °F 61.7 °F 30.27 in West 7.0 mph 11.0 mph 76 % 0.00 in 223 W/m2
08:37 69.6 °F 61.7 °F 30.27 in West 6.0 mph 10.0 mph 76 % 0.00 in 169 W/m2
08:42 69.6 °F 61.7 °F 30.27 in West 6.0 mph 10.0 mph 76 % 0.00 in 193 W/m2
08:47 70.3 °F 62.4 °F 30.27 in WNW 6.0 mph 10.0 mph 76 % 0.00 in 508 W/m2
08:52 71.1 °F 62.4 °F 30.27 in WNW 7.0 mph 10.0 mph 74 % 0.00 in 267 W/m2
08:57 71.4 °F 62.3 °F 30.27 in WNW 7.0 mph 12.0 mph 73 % 0.00 in 531 W/m2
09:02 72.0 °F 62.8 °F 30.27 in WNW 8.0 mph 13.0 mph 73 % 0.00 in 580 W/m2
09:07 72.5 °F 63.0 °F 30.28 in WNW 8.0 mph 13.0 mph 72 % 0.00 in 582 W/m2
09:12 73.2 °F 62.8 °F 30.28 in WNW 8.0 mph 12.0 mph 70 % 0.00 in 603 W/m2
09:17 73.8 °F 63.0 °F 30.28 in WNW 8.0 mph 12.0 mph 69 % 0.00 in 598 W/m2
09:22 74.5 °F 63.2 °F 30.28 in WNW 8.0 mph 12.0 mph 68 % 0.00 in 638 W/m2
09:27 74.7 °F 63.0 °F 30.28 in WNW 8.0 mph 14.0 mph 67 % 0.00 in 682 W/m2
09:32 74.7 °F 63.4 °F 30.28 in West 8.0 mph 14.0 mph 68 % 0.00 in 666 W/m2
09:37 74.5 °F 63.2 °F 30.28 in West 9.0 mph 14.0 mph 68 % 0.00 in 654 W/m2
09:42 74.7 °F 63.0 °F 30.28 in West 8.0 mph 14.0 mph 67 % 0.00 in 671 W/m2
09:47 74.8 °F 63.1 °F 30.28 in West 8.0 mph 12.0 mph 67 % 0.00 in 694 W/m2
09:52 75.0 °F 63.3 °F 30.28 in West 8.0 mph 14.0 mph 67 % 0.00 in 684 W/m2
09:57 75.0 °F 62.9 °F 30.28 in West 9.0 mph 15.0 mph 66 % 0.00 in 677 W/m2
10:02 75.0 °F 62.9 °F 30.27 in West 9.0 mph 15.0 mph 66 % 0.00 in 684 W/m2
10:07 75.4 °F 63.7 °F 30.28 in WNW 8.0 mph 13.0 mph 67 % 0.00 in 722 W/m2
10:12 76.1 °F 63.5 °F 30.28 in WNW 7.0 mph 13.0 mph 65 % 0.00 in 791 W/m2
10:17 76.6 °F 63.5 °F 30.28 in WNW 8.0 mph 13.0 mph 64 % 0.00 in 772 W/m2
10:22 77.0 °F 63.9 °F 30.27 in WNW 7.0 mph 12.0 mph 64 % 0.00 in 742 W/m2
10:27 77.4 °F 63.8 °F 30.27 in NW 7.0 mph 11.0 mph 63 % 0.00 in 840 W/m2
10:32 77.7 °F 64.1 °F 30.27 in NW 7.0 mph 13.0 mph 63 % 0.00 in 345 W/m2
10:37 77.7 °F 64.1 °F 30.27 in NW 6.0 mph 13.0 mph 63 % 0.00 in 345 W/m2
10:42 78.1 °F 64.0 °F 30.27 in WNW 6.0 mph 11.0 mph 62 % 0.00 in 313 W/m2
10:47 77.7 °F 63.7 °F 30.27 in WNW 6.0 mph 11.0 mph 62 % 0.00 in 325 W/m2
10:53 77.5 °F 63.5 °F 30.27 in NW 6.0 mph 9.0 mph 62 % 0.00 in 281 W/m2
10:58 77.5 °F 63.9 °F 30.27 in WNW 6.0 mph 9.0 mph 63 % 0.00 in 202 W/m2
11:03 77.0 °F 63.4 °F 30.27 in West 6.0 mph 10.0 mph 63 % 0.00 in 916 W/m2
11:08 77.4 °F 63.8 °F 30.27 in West 7.0 mph 12.0 mph 63 % 0.00 in 227 W/m2
11:13 77.4 °F 63.3 °F 30.27 in WNW 8.0 mph 12.0 mph 62 % 0.00 in 390 W/m2
11:18 76.8 °F 63.3 °F 30.27 in West 8.0 mph 14.0 mph 63 % 0.00 in 461 W/m2
11:23 76.8 °F 63.7 °F 30.27 in West 6.0 mph 14.0 mph 64 % 0.00 in 253 W/m2
11:28 77.0 °F 63.4 °F 30.27 in WNW 7.0 mph 12.0 mph 63 % 0.00 in 278 W/m2
11:33 76.6 °F 63.5 °F 30.27 in WNW 7.0 mph 12.0 mph 64 % 0.00 in 294 W/m2
11:38 76.5 °F 63.4 °F 30.27 in WNW 7.0 mph 13.0 mph 64 % 0.00 in 243 W/m2
11:43 76.3 °F 63.6 °F 30.27 in NW 8.0 mph 14.0 mph 65 % 0.00 in 285 W/m2
11:48 76.3 °F 63.6 °F 30.27 in NW 8.0 mph 14.0 mph 65 % 0.00 in 390 W/m2
11:53 76.3 °F 63.6 °F 30.27 in NW 7.0 mph 15.0 mph 65 % 0.00 in 306 W/m2
11:58 76.6 °F 64.0 °F 30.27 in WNW 8.0 mph 15.0 mph 65 % 0.00 in 970 W/m2
12:03 77.0 °F 63.9 °F 30.27 in WNW 9.0 mph 15.0 mph 64 % 0.00 in 466 W/m2
12:08 77.5 °F 63.9 °F 30.27 in WNW 9.0 mph 15.0 mph 63 % 0.00 in 860 W/m2
12:13 77.9 °F 64.3 °F 30.27 in WNW 9.0 mph 14.0 mph 63 % 0.00 in 851 W/m2
12:18 78.4 °F 64.3 °F 30.27 in WNW 9.0 mph 15.0 mph 62 % 0.00 in 916 W/m2
12:23 78.8 °F 64.2 °F 30.27 in WNW 8.0 mph 15.0 mph 61 % 0.00 in 933 W/m2
12:28 79.2 °F 64.6 °F 30.27 in WNW 9.0 mph 14.0 mph 61 % 0.00 in 939 W/m2
12:33 79.5 °F 64.4 °F 30.27 in WNW 9.0 mph 16.0 mph 60 % 0.00 in 937 W/m2
12:38 79.5 °F 64.4 °F 30.27 in WNW 9.0 mph 16.0 mph 60 % 0.00 in 947 W/m2
12:43 79.5 °F 64.4 °F 30.27 in West 9.0 mph 16.0 mph 60 % 0.00 in 932 W/m2
12:48 79.9 °F 64.3 °F 30.28 in West 9.0 mph 16.0 mph 59 % 0.00 in 942 W/m2
12:53 79.9 °F 64.3 °F 30.27 in WNW 10.0 mph 16.0 mph 59 % 0.00 in 949 W/m2
12:58 80.2 °F 64.6 °F 30.27 in WNW 10.0 mph 16.0 mph 59 % 0.00 in 928 W/m2
13:03 80.2 °F 64.6 °F 30.27 in WNW 10.0 mph 16.0 mph 59 % 0.00 in 916 W/m2
13:08 80.2 °F 64.1 °F 30.27 in West 10.0 mph 16.0 mph 58 % 0.00 in 921 W/m2
13:13 80.2 °F 64.1 °F 30.27 in West 10.0 mph 15.0 mph 58 % 0.00 in 932 W/m2
13:18 80.4 °F 64.3 °F 30.27 in WNW 9.0 mph 16.0 mph 58 % 0.00 in 923 W/m2
13:23 80.4 °F 64.3 °F 30.27 in West 9.0 mph 16.0 mph 58 % 0.00 in 891 W/m2
13:28 80.6 °F 64.5 °F 30.27 in West 9.0 mph 16.0 mph 58 % 0.00 in 949 W/m2
13:33 81.0 °F 64.3 °F 30.27 in West 8.0 mph 16.0 mph 57 % 0.00 in 879 W/m2
13:38 80.8 °F 64.6 °F 30.27 in West 9.0 mph 16.0 mph 58 % 0.00 in 856 W/m2
13:43 81.1 °F 63.4 °F 30.27 in WNW 9.0 mph 15.0 mph 55 % 0.00 in 863 W/m2
13:48 81.1 °F 62.9 °F 30.27 in WNW 9.0 mph 19.0 mph 54 % 0.00 in 853 W/m2
13:54 81.1 °F 63.4 °F 30.27 in WNW 10.0 mph 19.0 mph 55 % 0.00 in 842 W/m2
13:59 81.3 °F 63.6 °F 30.27 in WNW 9.0 mph 15.0 mph 55 % 0.00 in 856 W/m2
14:04 81.7 °F 65.0 °F 30.26 in WNW 8.0 mph 15.0 mph 57 % 0.00 in 842 W/m2
14:09 81.7 °F 64.5 °F 30.26 in West 7.0 mph 12.0 mph 56 % 0.00 in 854 W/m2
14:14 81.7 °F 63.9 °F 30.26 in West 7.0 mph 12.0 mph 55 % 0.00 in 858 W/m2
14:19 81.7 °F 64.5 °F 30.26 in West 8.0 mph 13.0 mph 56 % 0.00 in 863 W/m2
14:24 81.7 °F 64.5 °F 30.26 in West 8.0 mph 14.0 mph 56 % 0.00 in 868 W/m2
14:29 81.5 °F 64.3 °F 30.26 in West 8.0 mph 16.0 mph 56 % 0.00 in 870 W/m2
14:34 81.3 °F 64.1 °F 30.26 in West 8.0 mph 16.0 mph 56 % 0.00 in 863 W/m2
14:39 81.3 °F 64.1 °F 30.26 in WSW 7.0 mph 12.0 mph 56 % 0.00 in 775 W/m2
14:44 81.7 °F 64.5 °F 30.26 in West 7.0 mph 12.0 mph 56 % 0.00 in 809 W/m2
14:49 81.7 °F 63.9 °F 30.26 in West 8.0 mph 14.0 mph 55 % 0.00 in 796 W/m2
14:54 81.7 °F 63.4 °F 30.26 in West 7.0 mph 14.0 mph 54 % 0.00 in 756 W/m2
14:59 81.9 °F 63.6 °F 30.25 in West 6.0 mph 14.0 mph 54 % 0.00 in 765 W/m2
15:04 82.0 °F 63.2 °F 30.25 in West 8.0 mph 14.0 mph 53 % 0.00 in 809 W/m2
15:09 82.4 °F 63.0 °F 30.25 in West 9.0 mph 13.0 mph 52 % 0.00 in 784 W/m2
15:14 82.2 °F 63.4 °F 30.25 in West 8.0 mph 18.0 mph 53 % 0.00 in 802 W/m2
15:19 82.8 °F 63.9 °F 30.25 in WNW 8.0 mph 18.0 mph 53 % 0.00 in 782 W/m2
15:24 83.1 °F 63.7 °F 30.25 in WNW 8.0 mph 14.0 mph 52 % 0.00 in 780 W/m2
15:29 83.3 °F 63.3 °F 30.25 in West 8.0 mph 14.0 mph 51 % 0.00 in 770 W/m2
15:34 83.1 °F 63.1 °F 30.25 in WNW 8.0 mph 13.0 mph 51 % 0.00 in 763 W/m2
15:39 83.1 °F 63.1 °F 30.25 in WNW 9.0 mph 15.0 mph 51 % 0.00 in 751 W/m2
15:44 83.5 °F 62.9 °F 30.25 in WNW 8.0 mph 15.0 mph 50 % 0.00 in 742 W/m2
15:47 83.5 °F 62.3 °F 30.25 in WNW 7.0 mph 12.0 mph 49 % 0.00 in 738 W/m2
15:52 83.5 °F 62.3 °F 30.25 in WNW 8.0 mph 15.0 mph 49 % 0.00 in 693 W/m2
15:57 83.8 °F 62.1 °F 30.25 in WNW 8.0 mph 15.0 mph 48 % 0.00 in 670 W/m2
16:02 84.0 °F 61.6 °F 30.25 in WNW 7.0 mph 15.0 mph 47 % 0.00 in 689 W/m2
16:07 83.7 °F 61.9 °F 30.24 in West 6.0 mph 15.0 mph 48 % 0.00 in 673 W/m2
16:08 83.7 °F 61.9 °F 30.24 in West 7.0 mph 15.0 mph 48 % 0.00 in 679 W/m2
16:13 83.5 °F 61.7 °F 30.24 in West 6.0 mph 12.0 mph 48 % 0.00 in 649 W/m2
16:18 84.0 °F 62.2 °F 30.24 in WNW 7.0 mph 12.0 mph 48 % 0.00 in 633 W/m2
16:23 83.7 °F 60.7 °F 30.24 in West 8.0 mph 15.0 mph 46 % 0.00 in 636 W/m2
16:28 83.5 °F 60.5 °F 30.24 in West 8.0 mph 15.0 mph 46 % 0.00 in 629 W/m2
16:33 83.7 °F 61.9 °F 30.24 in WNW 7.0 mph 12.0 mph 48 % 0.00 in 622 W/m2
16:38 83.8 °F 61.5 °F 30.24 in WNW 6.0 mph 13.0 mph 47 % 0.00 in 613 W/m2
16:43 84.2 °F 62.4 °F 30.24 in WNW 7.0 mph 15.0 mph 48 % 0.00 in 596 W/m2
16:48 84.4 °F 61.9 °F 30.24 in WNW 8.0 mph 15.0 mph 47 % 0.00 in 592 W/m2
16:53 84.0 °F 62.8 °F 30.24 in West 8.0 mph 15.0 mph 49 % 0.00 in 577 W/m2
16:58 83.8 °F 62.6 °F 30.24 in West 7.0 mph 13.0 mph 49 % 0.00 in 577 W/m2
17:03 83.7 °F 61.9 °F 30.23 in West 8.0 mph 13.0 mph 48 % 0.00 in 566 W/m2
17:08 83.7 °F 62.5 °F 30.23 in West 7.0 mph 12.0 mph 49 % 0.00 in 547 W/m2
17:13 83.7 °F 63.0 °F 30.23 in West 8.0 mph 12.0 mph 50 % 0.00 in 526 W/m2
17:18 83.5 °F 62.9 °F 30.23 in West 8.0 mph 12.0 mph 50 % 0.00 in 524 W/m2
17:23 83.3 °F 62.7 °F 30.23 in West 8.0 mph 13.0 mph 50 % 0.00 in 508 W/m2
17:28 83.1 °F 63.1 °F 30.23 in West 8.0 mph 13.0 mph 51 % 0.00 in 490 W/m2
17:33 83.3 °F 63.3 °F 30.23 in West 7.0 mph 14.0 mph 51 % 0.00 in 471 W/m2
17:35 83.5 °F 63.4 °F 30.23 in West 7.0 mph 14.0 mph 51 % 0.00 in 469 W/m2
17:40 83.5 °F 62.9 °F 30.23 in West 7.0 mph 14.0 mph 50 % 0.00 in 461 W/m2
17:45 82.8 °F 62.8 °F 30.23 in West 7.0 mph 14.0 mph 51 % 0.00 in 448 W/m2
17:50 82.4 °F 63.0 °F 30.23 in WSW 7.0 mph 14.0 mph 52 % 0.00 in 429 W/m2
17:55 82.6 °F 63.2 °F 30.23 in WSW 7.0 mph 12.0 mph 52 % 0.00 in 415 W/m2
18:00 82.8 °F 63.9 °F 30.23 in West 8.0 mph 13.0 mph 53 % 0.00 in 410 W/m2
18:05 82.9 °F 63.5 °F 30.23 in West 8.0 mph 13.0 mph 52 % 0.00 in 396 W/m2
18:10 82.9 °F 63.5 °F 30.23 in West 7.0 mph 13.0 mph 52 % 0.00 in 378 W/m2
18:15 83.1 °F 63.1 °F 30.23 in West 7.0 mph 12.0 mph 51 % 0.00 in 369 W/m2
18:16 83.1 °F 63.1 °F 30.23 in WNW 7.0 mph 12.0 mph 51 % 0.00 in 364 W/m2
18:21 83.3 °F 63.8 °F 30.23 in West 7.0 mph 12.0 mph 52 % 0.00 in 355 W/m2
18:26 83.5 °F 64.0 °F 30.23 in West 6.0 mph 11.0 mph 52 % 0.00 in 336 W/m2
18:31 83.1 °F 64.2 °F 30.23 in West 6.0 mph 11.0 mph 53 % 0.00 in 332 W/m2
18:36 83.1 °F 63.7 °F 30.23 in West 7.0 mph 13.0 mph 52 % 0.00 in 320 W/m2
18:41 82.9 °F 63.0 °F 30.23 in West 7.0 mph 13.0 mph 51 % 0.00 in 295 W/m2
18:46 82.8 °F 63.3 °F 30.23 in West 8.0 mph 12.0 mph 52 % 0.00 in 285 W/m2
18:51 82.4 °F 63.5 °F 30.23 in West 8.0 mph 13.0 mph 53 % 0.00 in 278 W/m2
18:56 82.0 °F 63.2 °F 30.23 in West 8.0 mph 13.0 mph 53 % 0.00 in 264 W/m2
19:01 81.7 °F 63.4 °F 30.23 in West 7.0 mph 12.0 mph 54 % 0.00 in 253 W/m2
19:06 81.7 °F 63.4 °F 30.23 in WNW 6.0 mph 10.0 mph 54 % 0.00 in 234 W/m2
19:11 81.5 °F 63.3 °F 30.23 in West 6.0 mph 11.0 mph 54 % 0.00 in 221 W/m2
19:16 81.1 °F 63.4 °F 30.23 in WSW 7.0 mph 11.0 mph 55 % 0.00 in 207 W/m2
19:21 81.1 °F 63.4 °F 30.23 in West 6.0 mph 10.0 mph 55 % 0.00 in 199 W/m2
19:26 81.1 °F 63.4 °F 30.23 in WNW 6.0 mph 10.0 mph 55 % 0.00 in 188 W/m2
19:31 81.1 °F 63.4 °F 30.23 in WNW 7.0 mph 11.0 mph 55 % 0.00 in 174 W/m2
19:36 81.0 °F 63.3 °F 30.23 in WNW 7.0 mph 11.0 mph 55 % 0.00 in 167 W/m2
19:42 80.8 °F 63.1 °F 30.23 in WNW 6.0 mph 10.0 mph 55 % 0.00 in 155 W/m2
19:47 80.6 °F 62.9 °F 30.23 in WNW 6.0 mph 10.0 mph 55 % 0.00 in 142 W/m2
19:52 80.4 °F 62.8 °F 30.23 in WNW 6.0 mph 10.0 mph 55 % 0.00 in 134 W/m2
19:57 80.2 °F 63.1 °F 30.23 in WNW 7.0 mph 11.0 mph 56 % 0.00 in 125 W/m2
20:02 79.9 °F 62.8 °F 30.23 in West 6.0 mph 11.0 mph 56 % 0.00 in 100 W/m2
20:07 79.5 °F 62.9 °F 30.23 in West 5.0 mph 10.0 mph 57 % 0.00 in 47 W/m2
20:12 79.0 °F 62.4 °F 30.23 in West 5.0 mph 9.0 mph 57 % 0.00 in 40 W/m2
20:17 78.6 °F 62.6 °F 30.23 in West 4.0 mph 8.0 mph 58 % 0.00 in 54 W/m2
20:22 78.3 °F 62.8 °F 30.23 in West 4.0 mph 8.0 mph 59 % 0.00 in 35 W/m2
20:27 78.1 °F 63.1 °F 30.23 in WNW 4.0 mph 7.0 mph 60 % 0.00 in 32 W/m2
20:32 77.7 °F 62.7 °F 30.23 in WNW 4.0 mph 7.0 mph 60 % 0.00 in 30 W/m2
20:38 77.5 °F 62.6 °F 30.23 in WNW 4.0 mph 7.0 mph 60 % 0.00 in 32 W/m2
20:43 77.2 °F 62.7 °F 30.23 in WNW 3.0 mph 7.0 mph 61 % 0.00 in 28 W/m2
20:48 76.8 °F 61.9 °F 30.23 in WNW 3.0 mph 6.0 mph 60 % 0.00 in 23 W/m2
20:53 76.5 °F 61.5 °F 30.23 in NW 4.0 mph 8.0 mph 60 % 0.00 in 21 W/m2
20:58 75.9 °F 61.0 °F 30.23 in NW 5.0 mph 8.0 mph 60 % 0.00 in 19 W/m2
21:03 75.6 °F 61.2 °F 30.23 in NW 5.0 mph 9.0 mph 61 % 0.00 in 18 W/m2
21:08 75.0 °F 60.7 °F 30.23 in NW 5.0 mph 9.0 mph 61 % 0.00 in 16 W/m2
21:13 74.7 °F 60.8 °F 30.23 in NW 5.0 mph 9.0 mph 62 % 0.00 in 14 W/m2
21:18 74.3 °F 60.4 °F 30.24 in NW 4.0 mph 8.0 mph 62 % 0.00 in 12 W/m2
21:23 73.9 °F 60.1 °F 30.24 in NW 5.0 mph 9.0 mph 62 % 0.00 in 11 W/m2
21:28 73.6 °F 59.8 °F 30.24 in NW 6.0 mph 11.0 mph 62 % 0.00 in 9 W/m2
21:33 73.2 °F 59.4 °F 30.24 in NW 5.0 mph 11.0 mph 62 % 0.00 in 7 W/m2
21:38 73.0 °F 59.2 °F 30.24 in NW 4.0 mph 8.0 mph 62 % 0.00 in 5 W/m2
21:43 72.7 °F 59.4 °F 30.24 in NW 2.0 mph 6.0 mph 63 % 0.00 in 0 W/m2
21:48 72.5 °F 59.6 °F 30.24 in NW 1.0 mph 4.0 mph 64 % 0.00 in 0 W/m2
21:53 72.1 °F 59.7 °F 30.25 in NW 1.0 mph 4.0 mph 65 % 0.00 in 0 W/m2
21:54 72.1 °F 59.7 °F 30.25 in NW 1.0 mph 4.0 mph 65 % 0.00 in 0 W/m2
21:59 71.8 °F 59.4 °F 30.25 in NW 2.0 mph 6.0 mph 65 % 0.00 in 0 W/m2
22:04 71.2 °F 58.4 °F 30.25 in NW 3.0 mph 6.0 mph 64 % 0.00 in 0 W/m2
22:09 70.9 °F 58.5 °F 30.25 in NW 2.0 mph 6.0 mph 65 % 0.00 in 0 W/m2
22:14 70.5 °F 57.8 °F 30.25 in NW 2.0 mph 8.0 mph 64 % 0.00 in 0 W/m2
22:19 70.2 °F 57.4 °F 30.25 in NW 4.0 mph 8.0 mph 64 % 0.00 in 0 W/m2
22:24 70.0 °F 57.2 °F 30.25 in NW 5.0 mph 9.0 mph 64 % 0.00 in 0 W/m2
22:29 69.8 °F 57.1 °F 30.25 in NW 4.0 mph 9.0 mph 64 % 0.00 in 0 W/m2
22:34 69.6 °F 57.3 °F 30.25 in NW 2.0 mph 6.0 mph 65 % 0.00 in 0 W/m2
22:39 69.3 °F 57.0 °F 30.26 in NW 1.0 mph 5.0 mph 65 % 0.00 in 0 W/m2
22:44 68.9 °F 57.9 °F 30.26 in Calm   4.0 mph 68 % 0.00 in 0 W/m2
22:49 68.5 °F 58.0 °F 30.26 in Calm   4.0 mph 69 % 0.00 in 0 W/m2
22:54 68.4 °F 57.8 °F 30.26 in Calm   2.0 mph 69 % 0.00 in 0 W/m2
22:59 68.0 °F 57.4 °F 30.26 in NW 1.0 mph 2.0 mph 69 % 0.00 in 0 W/m2
23:04 67.6 °F 57.5 °F 30.26 in NW 1.0 mph 2.0 mph 70 % 0.00 in 0 W/m2
23:09 67.3 °F 57.2 °F 30.26 in NW 1.0 mph 2.0 mph 70 % 0.00 in 0 W/m2
23:14 66.9 °F 56.4 °F 30.26 in NW 1.0 mph 3.0 mph 69 % 0.00 in 0 W/m2
23:19 66.7 °F 56.2 °F 30.26 in NW 1.0 mph 4.0 mph 69 % 0.00 in 0 W/m2
23:24 66.7 °F 55.8 °F 30.26 in NW 1.0 mph 4.0 mph 68 % 0.00 in 0 W/m2
23:29 66.6 °F 56.1 °F 30.26 in Calm   2.0 mph 69 % 0.00 in 0 W/m2
23:34 66.6 °F 56.5 °F 30.26 in Calm   2.0 mph 70 % 0.00 in 0 W/m2
23:39 66.4 °F 56.3 °F 30.26 in NW 1.0 mph 2.0 mph 70 % 0.00 in 0 W/m2
23:44 66.0 °F 56.3 °F 30.26 in NW 1.0 mph 4.0 mph 71 % 0.00 in 0 W/m2
23:49 65.7 °F 56.0 °F 30.25 in NW 2.0 mph 5.0 mph 71 % 0.00 in 0 W/m2
23:54 65.5 °F 56.2 °F 30.25 in NW 4.0 mph 6.0 mph 72 % 0.00 in 0 W/m2
23:59 65.1 °F 56.2 °F 30.25 in WNW 4.0 mph 6.0 mph 73 % 0.00 in 0 W/m2
Delerius-Weather
Compliments of Weather Underground - 2.25 mb

Data updates at regular intervals.